Regional Weather Roundup
Issued by NWS

Home | Current Version | Previous Version | Text Only | Print | Product List | Glossary Off
Versions: 1 2 3 4 5 6 7 8 9 10 11 12 13 14 15 16 17 18 19 20 21 22 23 24 25 26 27

000
ASUS45 KCYS 282010
RWRWY

WYOMING REGIONAL WEATHER ROUNDUP
NATIONAL WEATHER SERVICE CHEYENNE WY
200 PM MDT WED SEP 28 2016

NOTE:  "FAIR" INDICATES FEW OR NO CLOUDS BELOW 12,000 FEET
WITH NO SIGNIFICANT WEATHER AND/OR OBSTRUCTIONS TO VISIBILITY.

WYZ001-282100-
YELLOWSTONE NATIONAL PARK

CITY           SKY/WX    TMP DP  RH WIND       PRES   REMARKS
LK YELLOWSTONE   N/A     67  32  27 VRB6      30.40F
W YELLOWSTONE  NOT AVBL

$$
WYZ002>013-054>058-071-098>099-282100-
NORTHERN WYOMING

CITY           SKY/WX    TMP DP  RH WIND       PRES   REMARKS
JACKSON        SUNNY     72  36  26 CALM      30.32F
CODY           FAIR      69  48  47 VRB5      30.28F
GREYBULL       FAIR      73  46  38 VRB3      30.23F
WORLAND        FAIR      73  51  46 N6        30.24F
SHERIDAN       FAIR      80  39  23 SE15G24   30.24F
BUFFALO        NOT AVBL
GILLETTE       FAIR      76  44  32 E9        30.29F
HULETT         FAIR      79  43  27 E6        30.30F
NEWCASTLE      FAIR      77  37  24 W5        30.29F

$$
WYZ014>020-022>026-101>103-282100-
CENTRAL WYOMING

CITY           SKY/WX    TMP DP  RH WIND       PRES   REMARKS
BIG PINEY      FAIR      73  29  19 S12G18    30.37F
PINEDALE       FAIR      72  27  18 S8G17     30.38F
DUBOIS         FAIR      66  34  30 SE16G23   30.37F
LANDER         FAIR      74  41  30 E9        30.30F
RIVERTON       FAIR      71  39  31 VRB5      30.31F
CASPER         FAIR      75  36  24 E6        30.31F
DOUGLAS        FAIR      77  35  21 VRB5      30.31F

$$
WYZ021-027>030-104>119-282100-
SOUTHERN WYOMING

CITY           SKY/WX    TMP DP  RH WIND       PRES   REMARKS
EVANSTON       FAIR      71  34  25 VRB5      30.33F
FORT BRIDGER   CLEAR     73  34  23 E5        30.37F
ROCK SPRINGS   FAIR      72  32  23 E10       30.34F
DIXON          FAIR      77  34  21 W8        30.34F
RAWLINS        FAIR      74  28  18 VRB5      30.35F
SARATOGA       FAIR      75  30  19 N8        30.35F
LARAMIE        FAIR      72  30  21 E14G20    30.38F
CHEYENNE       FAIR      75  34  22 S10       30.36F
TORRINGTON     FAIR      79  35  20 VRB3      30.27F
PINE BLUFFS    FAIR      77  34  20 NE7       30.33S

$$




USA.gov is the U.S. government's official web portal to all federal, state and local government web resources and services.